Time,TemperatureF,DewpointF,PressureIn,WindDirection,WindDirectionDegrees,WindSpeedMPH,WindSpeedGustMPH,Humidity,HourlyPrecipIn,Conditions,Clouds,dailyrainin,SoftwareType,DateUTC
2014-12-27 00:12:00,40.0,35.0,30.19,SSE,150,0.0,0.0,81,0.00,,,0.01,,2014-12-27 05:12:00,
2014-12-27 00:22:00,40.0,35.0,30.18,SSE,150,0.0,0.0,82,0.00,,,0.01,,2014-12-27 05:22:00,
2014-12-27 00:42:00,39.0,34.0,30.18,SSE,150,0.0,0.0,83,0.00,,,0.01,,2014-12-27 05:42:00,
2014-12-27 00:52:00,39.0,35.0,30.18,SSE,150,0.0,0.0,84,0.00,,,0.01,,2014-12-27 05:52:00,
2014-12-27 01:22:00,40.0,35.0,30.18,SSE,150,0.0,0.0,83,0.00,,,0.01,,2014-12-27 06:22:00,
2014-12-27 01:42:00,40.0,36.0,30.18,SSE,151,0.0,0.0,84,0.00,,,0.01,,2014-12-27 06:42:00,
2014-12-27 01:52:00,40.0,36.0,30.19,SSE,150,0.0,0.0,85,0.00,,,0.01,,2014-12-27 06:52:00,
2014-12-27 02:12:00,40.0,36.0,30.19,SSE,150,0.0,0.0,85,0.00,,,0.01,,2014-12-27 07:12:00,
2014-12-27 02:22:00,40.0,36.0,30.19,SSE,150,0.0,0.0,85,0.00,,,0.01,,2014-12-27 07:22:00,
2014-12-27 02:43:00,40.0,36.0,30.20,SSE,150,0.0,0.0,85,0.00,,,0.01,,2014-12-27 07:43:00,
2014-12-27 02:52:00,39.0,35.0,30.21,SSE,150,0.0,0.0,85,0.00,,,0.01,,2014-12-27 07:52:00,
2014-12-27 03:12:00,39.0,35.0,30.21,SSE,151,0.0,0.0,85,0.00,,,0.01,,2014-12-27 08:12:00,
2014-12-27 03:22:00,38.0,34.0,30.20,SSE,151,0.0,2.0,86,0.00,,,0.01,,2014-12-27 08:22:00,
2014-12-27 03:42:00,38.0,34.0,30.21,SSE,151,0.0,0.0,86,0.00,,,0.01,,2014-12-27 08:42:00,
2014-12-27 03:52:00,37.0,33.0,30.21,SSE,151,0.0,0.0,86,0.00,,,0.01,,2014-12-27 08:52:00,
2014-12-27 04:12:00,37.0,34.0,30.20,SSE,151,0.0,1.0,87,0.00,,,0.01,,2014-12-27 09:12:00,
2014-12-27 04:22:00,37.0,34.0,30.20,SSE,151,0.0,1.0,87,0.00,,,0.01,,2014-12-27 09:22:00,
2014-12-27 04:44:00,37.0,34.0,30.21,SSE,151,0.0,2.0,88,0.00,,,0.01,,2014-12-27 09:44:00,
2014-12-27 04:53:00,37.0,34.0,30.19,SE,144,0.0,1.0,87,0.00,,,0.01,,2014-12-27 09:53:00,
2014-12-27 05:13:00,36.0,33.0,30.20,SE,144,0.0,1.0,87,0.00,,,0.01,,2014-12-27 10:13:00,
2014-12-27 05:23:00,36.0,33.0,30.20,SE,144,0.0,0.0,87,0.00,,,0.01,,2014-12-27 10:23:00,
2014-12-27 05:43:00,36.0,33.0,30.20,SE,144,0.0,1.0,88,0.00,,,0.01,,2014-12-27 10:43:00,
2014-12-27 05:53:00,36.0,33.0,30.19,SE,140,0.0,2.0,88,0.00,,,0.01,,2014-12-27 10:53:00,
2014-12-27 06:13:00,36.0,33.0,30.20,SE,141,0.0,0.0,88,0.00,,,0.01,,2014-12-27 11:13:00,
2014-12-27 06:22:00,37.0,34.0,30.20,SE,138,0.0,3.0,88,0.00,,,0.01,,2014-12-27 11:22:00,
2014-12-27 06:43:00,37.0,34.0,30.20,SE,138,0.0,1.0,87,0.00,,,0.01,,2014-12-27 11:43:00,
2014-12-27 06:52:00,37.0,34.0,30.20,SE,138,0.0,0.0,87,0.00,,,0.01,,2014-12-27 11:52:00,
2014-12-27 07:12:00,38.0,34.0,30.20,SE,138,0.0,1.0,87,0.00,,,0.01,,2014-12-27 12:12:00,
2014-12-27 07:22:00,38.0,34.0,30.21,SE,138,0.0,1.0,86,0.00,,,0.01,,2014-12-27 12:22:00,
2014-12-27 07:42:00,38.0,34.0,30.21,SE,138,0.0,1.0,86,0.00,,,0.01,,2014-12-27 12:42:00,
2014-12-27 07:52:00,39.0,35.0,30.21,SE,138,0.0,1.0,86,0.00,,,0.01,,2014-12-27 12:52:00,
2014-12-27 08:22:00,39.0,35.0,30.22,SE,138,0.0,1.0,87,0.01,,,0.02,,2014-12-27 13:22:00,